Time,TemperatureF,DewpointF,PressureIn,WindDirection,WindDirectionDegrees,WindSpeedMPH,WindSpeedGustMPH,Humidity,HourlyPrecipIn,Conditions,Clouds,dailyrainin,SoftwareType,DateUTC
2013-07-02 14:55:00,81.9,51.6,30.01,ESE,116,3.0,4.0,35,0.00,,,0.00,Wunderground v.1.15,2013-07-02 19:55:00,
2013-07-02 14:57:00,82.0,52.4,30.01,ENE,71,4.0,6.0,36,0.00,,,0.00,Wunderground v.1.15,2013-07-02 19:57:00,
2013-07-02 14:59:00,82.0,52.4,30.01,ENE,72,4.0,6.0,36,0.00,,,0.00,Wunderground v.1.15,2013-07-02 19:59:00,
2013-07-02 15:01:00,82.0,52.4,30.01,ENE,78,4.0,5.0,36,0.00,,,0.00,Wunderground v.1.15,2013-07-02 20:01:00,
2013-07-02 15:03:00,81.9,50.8,30.01,ENE,72,4.0,6.0,34,0.00,,,0.00,Wunderground v.1.15,2013-07-02 20:03:00,
2013-07-02 15:09:00,81.7,48.1,30.01,NNE,32,5.0,9.0,31,0.00,,,0.00,Wunderground v.1.15,2013-07-02 20:09:00,
2013-07-02 15:49:00,82.6,52.2,30.00,ENE,63,4.0,11.0,35,0.00,,,0.00,Wunderground v.1.15,2013-07-02 20:49:00,
2013-07-02 15:55:00,82.8,50.8,30.00,NNE,13,3.0,11.0,33,0.00,,,0.00,Wunderground v.1.15,2013-07-02 20:55:00,
2013-07-02 16:00:00,82.5,51.3,30.00,WNW,302,3.0,3.0,34,0.00,,,0.00,Wunderground v.1.15,2013-07-02 21:00:00,
2013-07-02 16:06:00,82.3,51.9,30.00,ESE,116,3.0,9.0,35,0.00,,,0.00,Wunderground v.1.15,2013-07-02 21:06:00,
2013-07-02 16:11:00,82.4,52.0,30.00,ESE,114,3.0,3.0,35,0.00,,,0.00,Wunderground v.1.15,2013-07-02 21:11:00,
2013-07-02 16:17:00,83.1,52.6,30.00,ENE,66,3.0,5.0,35,0.00,,,0.00,Wunderground v.1.15,2013-07-02 21:17:00,
2013-07-02 16:23:00,82.3,53.4,30.00,NNW,331,3.0,5.0,37,0.00,,,0.00,Wunderground v.1.15,2013-07-02 21:23:00,
2013-07-02 16:28:00,81.7,51.4,30.00,NNE,33,3.0,6.0,35,0.00,,,0.00,Wunderground v.1.15,2013-07-02 21:28:00,
2013-07-02 16:34:00,81.7,52.1,30.00,NE,41,4.0,16.0,36,0.00,,,0.00,Wunderground v.1.15,2013-07-02 21:34:00,
2013-07-02 16:40:00,81.9,53.8,30.00,ENE,64,4.0,16.0,38,0.00,,,0.00,Wunderground v.1.15,2013-07-02 21:40:00,
2013-07-02 16:46:00,82.2,53.3,30.00,NE,47,3.0,16.0,37,0.00,,,0.00,Wunderground v.1.15,2013-07-02 21:46:00,
2013-07-02 16:51:00,82.1,54.0,30.00,NE,47,4.0,16.0,38,0.00,,,0.00,Wunderground v.1.15,2013-07-02 21:51:00,
2013-07-02 16:57:00,82.2,53.3,30.00,SE,124,4.0,16.0,37,0.00,,,0.00,Wunderground v.1.15,2013-07-02 21:57:00,
2013-07-02 17:03:00,82.4,53.5,30.00,NE,47,4.0,5.0,37,0.00,,,0.00,Wunderground v.1.15,2013-07-02 22:03:00,
2013-07-02 17:09:00,81.9,53.1,30.00,NNE,19,4.0,8.0,37,0.00,,,0.00,Wunderground v.1.15,2013-07-02 22:09:00,
2013-07-02 17:15:00,82.2,52.6,30.00,ENE,73,3.0,4.0,36,0.00,,,0.00,Wunderground v.1.15,2013-07-02 22:15:00,